Volver al catálogo

SL-16 DEB

ActivoLEO
NORAD 22500·DEBRIS·🇷🇺 Russia

Lanzado Dec 25, 1992 desde Baikonur Cosmodrome

Loading…

Próximos Pases (próximas 24 horas)

TLE

ActualizadoSource: Space-Track

Época: Sep 14, 2026, 06:00 UTC

1 22500U 92093GK  26257.25054799  .00000615  00000-0  25697-3 0  9999
2 22500  70.8469 198.6330 0060725 351.6027   8.4079 14.29197490743120

Sigue SL-16 DEB en tiempo real con AllMySat

Download on the App Store